This demonstration page uses our WeatherBlox Daily Observations layout. Learn more.

Left ArrowRight Arrow

39.12711, -84.51439

Hourly Observations for September 6, 2018

Temp ( °F °C ) Dew Point ( °F °C ) Humidity (%) Winds ( mph kmh ) Pressure ( in mb ) Visibility ( mi km ) Precip ( " mm )
12:53 am 00:53 Clear 72 22.2 72 22.2 100 100 S 6 9 30.19 1022 9 14 0.00 0.00
1:53 am 01:53 Clear 73 22.8 71 21.7 94 94 Calm 30.18 1022 10 16 0.00 0.00
2:53 am 02:53 Clear 72 22.2 72 22.2 100 100 Calm 30.17 1022 9 14 0.00 0.00
3:53 am 03:53 Clear 71 21.7 71 21.7 100 100 Calm 30.18 1022 10 16 0.00 0.00
4:53 am 04:53 Clear 71 21.7 71 21.7 100 100 Calm 30.18 1022 7 11 0.00 0.00
5:10 am 05:10 Clear with Mist and Fog 71 21.7 71 21.7 100 100 Calm 30.15 1021 2 3 0.00 0.00
5:22 am 05:22 Clear with Mist and Fog 71 21.7 71 21.7 100 100 Calm 30.15 1021 4 6 0.00 0.00
5:29 am 05:29 Clear with Mist and Fog 70 21.1 70 21.1 100 100 Calm 30.15 1021 2 2 0.00 0.00
5:39 am 05:39 Clear with Mist and Fog 70 21.1 70 21.1 100 100 Calm 30.18 1022 4 6 0.00 0.00
5:53 am 05:53 Clear 71 21.7 71 21.7 100 100 Calm 30.18 1022 9 14 0.00 0.00
6:53 am 06:53 Partly Cloudy 71 21.7 71 21.7 100 100 Calm 30.19 1022 9 14 0.00 0.00
7:53 am 07:53 Mostly Cloudy 72 22.2 72 22.2 100 100 NE 3 6 30.21 1023 9 14 0.00 0.00
8:53 am 08:53 Sunny 75 23.9 73 22.8 94 94 Calm 30.20 1023 10 16 0.00 0.03
9:53 am 09:53 Sunny 77 25 73 22.8 88 88 S 3 6 30.21 1023 10 16 0.00 0.00
10:53 am 10:53 Sunny 81 27.2 75 23.9 82 82 S 3 6 30.21 1023 10 16 0.00 0.03
11:53 am 11:53 Mostly Sunny 87 30.6 76 24.4 70 70 VRB 5 7 30.20 1023 10 16 0.00 0.00
12:53 pm 12:53 Partly Cloudy 87 30.6 73 22.8 63 63 ESE 3 6 30.18 1022 10 16 0.00 0.00
1:53 pm 13:53 Partly Cloudy 90 32.2 74 23.3 59 59 VRB 6 9 30.16 1021 10 16 0.00 0.00
2:53 pm 14:53 Partly Cloudy 88 31.1 75 23.9 66 66 NE 8 13 30.15 1021 10 16 0.00 0.00
3:53 pm 15:53 Mostly Cloudy 84 28.9 72 22.2 67 67 NNE 23 37 30.14 1021 10 16 0.00 0.00
4:03 pm 16:03 Mostly Cloudy with Thunderstorms 82 27.8 69 20.6 65 65 NNE 18 30 30.12 1020 10 16 0.00 0.00
4:15 pm 16:15 Mostly Cloudy with Strong Thunderstorms 78 25.6 71 21.7 79 79 ENE 15 24 30.12 1020 2 3 0.11 2.79
4:22 pm 16:22 Cloudy with Thunderstorms 76 24.4 73 22.8 91 91 ENE 8 13 30.15 1021 4 6 0.13 3.30
4:53 pm 16:53 Cloudy with Thunderstorms 75 23.9 75 23.9 100 100 S 6 9 30.16 1021 7 11 0.13 3.30
5:24 pm 17:24 Cloudy with Nearby Thunderstorms 74 23.3 74 23.3 100 100 S 8 13 30.15 1021 8 13 0.05 1.27
5:46 pm 17:46 Partly Cloudy with Light Rain 73 22.8 73 22.8 100 100 Calm 30.15 1021 7 11 0.05 1.27
5:53 pm 17:53 Partly Cloudy with Nearby Thunderstorms 73 22.8 73 22.8 100 100 SSE 5 7 30.16 1022 7 11 0.05 1.27
6:11 pm 18:11 Partly Cloudy with Light Rain 73 22.8 73 22.8 100 100 SSW 3 6 30.15 1021 4 6 0.01 0.25
6:53 pm 18:53 Cloudy with Light Rain 76 24.4 74 23.3 94 94 Calm 30.16 1021 5 8 0.06 1.52
7:53 pm 19:53 Sunny 74 23.3 74 23.3 100 100 Calm 30.16 1021 7 11 0.00 0.03
8:53 pm 20:53 Mostly Clear with Light Rain 74 23.3 74 23.3 100 100 Calm 30.18 1022 8 13 0.00 0.03
9:53 pm 21:53 Mostly Cloudy with Light Rain 73 22.8 73 22.8 100 100 SE 5 7 30.19 1022 5 8 0.00 0.03
10:53 pm 22:53 Clear with Mist and Fog 73 22.8 73 22.8 100 100 Calm 30.18 1022 3 5 0.01 0.25
11:05 pm 23:05 Clear with Mist and Fog 73 22.8 73 22.8 100 100 Calm 30.15 1021 2 3 0.00 0.00
11:12 pm 23:12 Clear with Mist and Fog 73 22.8 73 22.8 100 100 Calm 30.15 1021 3 5 0.00 0.00
11:53 pm 23:53 Clear with Mist and Fog 73 22.8 73 22.8 100 100 Calm 30.16 1021 6 10 0.00 0.00

Powered by AerisWeather